Location: Cicognara
(44.9500°N, 10.4667°E)
Time: 09:04:12
(UTC+00:00)

Cosmos 1626 Rocket - Pass Details

Date: 20 June 2021
Orbit: 602 x 631 km, 82.5° (Epoch: 04 August)

Event Time Altitude Azimuth Distance (km) Brightness Sun altitude
Exits shadow 22:12:17 33° 111° (ESE) 1,059 4.4 -19.9°
Maximum altitude 22:12:57 35° 91° (E) 1,018 4.5 -19.9°
Drops below altitude 10° 22:17:00 10° 26° (NNE) 2,007 6.8 -20.1°
Sets 22:19:22 0° 17° (NNE) 2,914 8.0 -20.2°
